GW1320 Weather Reports


time (UTC)temp
C
wind
direction
speed
KPH
gust
KPH
rain 1hr
cm
rain 24hr
cm
rain mn
cm
humidity
%
barometer
mb
20260502233043 6 0 0.0 0.0 0.00 0.13 0.00 72 1016.6
20260502231542 6 0 0.0 3.2 0.00 0.13 0.00 72 1016.6
20260502230051 6 0 0.0 1.6 0.00 0.13 0.00 72 1016.7
20260502224548 6 0 0.0 1.6 0.00 0.13 0.00 71 1016.7
20260502223046 6 0 0.0 1.6 0.00 0.13 0.00 71 1016.7
20260502221544 6 360 0.0 4.8 0.00 0.13 0.00 73 1016.7
20260502220045 6 0 0.0 3.2 0.00 0.13 0.00 74 1016.7
20260502214553 6 360 0.0 3.2 0.00 0.13 0.00 72 1016.6
20260502213047 6 0 0.0 6.4 0.00 0.13 0.00 72 1016.5
20260502211546 6 32 1.6 6.4 0.00 0.13 0.00 68 1016.5
20260502210054 6 0 0.0 12.9 0.00 0.13 0.00 65 1016.4
20260502204552 7 360 3.2 12.9 0.00 0.13 0.00 68 1016.4
20260502203047 6 20 1.6 8.0 0.00 0.13 0.00 71 1016.5
20260502201548 6 9 4.8 12.9 0.00 0.13 0.00 69 1016.6
20260502200053 6 32 3.2 12.9 0.00 0.13 0.00 71 1016.6
20260502194551 7 26 4.8 14.5 0.00 0.13 0.00 69 1016.7
20260502193046 7 360 6.4 14.5 0.00 0.13 0.00 65 1016.7
20260502191548 6 360 3.2 12.9 0.00 0.13 0.00 69 1016.8
20260502190048 7 360 4.8 12.9 0.00 0.13 0.00 68 1016.9
20260502184542 6 30 6.4 17.7 0.00 0.13 0.00 71 1016.9
20260502183047 6 360 4.8 16.1 0.00 0.13 0.00 73 1017.0
20260502181552 7 360 6.4 14.5 0.00 0.13 0.00 70 1017.0
20260502163051 6 360 4.8 19.3 0.00 0.13 0.00 74 1017.2
20260502161542 6 360 8.0 19.3 0.00 0.13 0.00 72 1017.3
20260502151559 6 9 9.7 24.1 0.00 0.13 0.00 75 1017.2
20260502123051 2 327 17.7 22.5 0.00 0.20 0.00 84 1016.6
20260502121546 2 339 14.5 22.5 0.00 0.20 0.00 83 1016.5
20260502114541 1 360 16.1 20.9 0.00 0.20 0.00 84 1016.4
20260502113051 1 360 12.9 17.7 0.00 0.20 0.00 86 1016.5
20260502111548 0 360 9.7 14.5 0.00 0.20 0.00 87 1016.5
20260502110052 0 302 4.8 8.0 0.00 0.20 0.00 88 1016.3
20260502104548 0 360 6.4 11.3 0.00 0.20 0.00 87 1016.3
20260502103041 0 293 4.8 11.3 0.00 0.20 0.00 87 1016.2
20260502101556 0 305 8.0 12.9 0.00 0.20 0.00 87 1016.1
20260502100113 1 306 9.7 14.5 0.00 0.20 0.00 87 1016.3
20260502070048 2 306 4.8 11.3 0.00 0.20 0.00 87 1015.9
20260502064543 2 292 6.4 11.3 0.00 0.20 0.00 88 1016.2
20260502063049 2 294 4.8 11.3 0.00 0.20 0.00 88 1016.2
20260502061544 3 304 9.7 14.5 0.00 0.20 0.00 88 1016.1
20260502060041 3 297 8.0 14.5 0.00 0.20 0.00 90 1016.2
20260502054549 3 280 8.0 11.3 0.00 0.20 0.00 92 1016.4
20260502053052 3 266 6.4 12.9 0.00 0.20 0.00 92 1016.4
20260502051548 3 273 8.0 11.3 0.00 0.20 0.00 92 1016.3
20260502050048 3 269 6.4 16.1 0.00 0.20 0.00 92 1016.4
20260502044546 4 263 3.2 6.4 0.00 0.20 0.00 92 1016.3
20260502043047 4 249 3.2 8.0 0.00 0.20 0.00 92 1016.4
20260502041547 4 260 3.2 6.4 0.00 0.20 0.00 93 1016.3
20260502040044 4 259 4.8 6.4 0.00 0.20 0.00 92 1016.3
20260502034547 5 274 1.6 4.8 0.00 0.20 0.20 92 1016.3
20260502033050 4 254 1.6 4.8 0.00 0.20 0.20 92 1016.5
20260502031548 4 275 1.6 4.8 0.00 0.20 0.20 91 1016.5
20260502030044 4 214 0.0 4.8 0.00 0.20 0.20 91 1016.4
20260502024559 4 231 1.6 6.4 0.00 0.20 0.20 90 1016.3
20260502023045 5 217 3.2 6.4 0.00 0.20 0.20 89 1016.2
20260502021550 5 315 1.6 4.8 0.00 0.20 0.20 88 1015.9
20260502020042 5 360 3.2 16.1 0.00 0.20 0.20 88 1015.9
20260502014549 5 360 14.5 24.1 0.00 0.20 0.20 91 1016.0
20260502013047 5 360 1.6 6.4 0.00 0.20 0.20 93 1015.9
20260502011548 5 0 0.0 1.6 0.00 0.20 0.20 92 1015.5
20260502010048 5 0 0.0 0.0 0.03 0.20 0.20 92 1015.3
20260502004542 5 0 0.0 4.8 0.13 0.20 0.20 91 1015.3
20260502003041 4 51 0.0 3.2 0.13 0.20 0.20 91 1015.3
20260502001541 4 0 0.0 1.6 0.13 0.20 0.20 89 1015.4
20260502000049 5 0 1.6 14.5 0.10 0.18 0.18 87 1015.2
20260501234549 7 360 6.4 12.9 0.00 0.08 0.08 84 1014.9